カタログに戻る

HULIANWANG DIGUI-94

運用中通信LEO
NORAD 66002·PAYLOAD·🇨🇳 China

打ち上げ Oct 16, 2025 から Wenchang Space Launch Site

Loading…

次のパス (今後24時間)

TLE

最新Source: Space-Track

元期: Sep 14, 2026, 06:52 UTC

1 66002U 25231H   26257.28624230 -.00000101  00000-0  49217-4 0  9996
2 66002  50.0046 216.0516 0000349  44.8684 315.2216 13.29328701 44747

AllMySatでHULIANWANG DIGUI-94をリアルタイム追跡

Download on the App Store